Regional Weather Roundup
Issued by NWS Pendleton, OR

Home | Current Version | Previous Version | Text Only | Print | Product List | Glossary On
Versions: 1 2 3 4 5 6 7 8 9 10 11 12 13 14 15 16 17 18 19 20 21 22 23 24 25 26 27 28 29 30 31 32 33 34 35 36 37 38 39 40 41 42 43 44 45 46 47 48 49 50
000
ASUS46 KPDT 170210
RWRPDT
PENDLETON REGIONAL WEATHER ROUNDUP
NATIONAL WEATHER SERVICE PENDLETON OREGON
700 PM PDT WED APR 16 2014

NOTE: FAIR INDICATES FEW OR NO CLOUDS BELOW 12,000 FEET WITH NO
SIGNIFICANT WEATHER AND/OR OBSTRUCTIONS TO VISIBILITY.

# INDICATES UNOFFICIAL STATION AND DATA

WAZ520-170310-
EAST SLOPES OF WASHINGTON CASCADES

CITY            SKY/WX      TMP DP  RH  WIND    PRES   REMARKS
#BUMPING DAM    N/A         43  N/A N/A S2      N/A
#CLE ELUM HS    N/A         47  38  71  W2      29.94F
#CLE ELUM 2NW   N/A         46  38  73  S3      N/A
#CLE ELUM LAKE  N/A         44  38  79  CALM    29.98F
#CLIFFDEL 2NW   N/A         48  39  71  N1      N/A
#EASTON DOT     N/A         44  43  96  CALM    N/A
#GLENWOOD       N/A         50  42  74  S5      29.99F
#MANASTASH CYN  N/A         48  40  74  CALM    29.93F
#NELSON         N/A         46  42  86  CALM    30.01F
#NELSON 3SW     N/A         42  41  96  CALM    30.21F
#NILE           N/A         53  39  59  W3      29.29F
#PEOH POINT     N/A         39  38  96  W2      N/A
#RONALD 2NW     N/A         46  38  73  CALM    29.85F
#SOUTH BLEWITT  N/A         50  38  63  CALM    N/A
#TEANAWAY 4NE   N/A         49  41  74  W3      N/A
#TROUT LAKE HS  N/A         50  43  77  N2      N/A
#TROUT LAKE 1NE N/A         48  41  77  N2      30.02S
$$

WAZ521-170310-
SIMCOE HIGHLANDS

CITY            SKY/WX      TMP DP  RH  WIND    PRES   REMARKS
#BICKLETON HS   N/A         49  30  48  W10     30.00S
#SATUS PASS DOT N/A         48  31  51  CALM    N/A
#CENTERVILLE 4W N/A         52  42  69  N6      29.75F
#CENTERVILLE 1SWN/A         52  40  63  W10     29.97F
#GOLDENDALE 1NE N/A         54  35  48  SW6     N/A
#GOLDENDALE 1S  N/A         52  41  66  W8      28.17S
#GOLDENDALE 5WNWN/A         52  41  66  W12     29.98F
#GOODNOE HILLS  N/A         56  40  55  NW12    29.91F
#LYLE 6NE       N/A         52  43  71  NW5     29.98F
$$

WAZ026-170310-
KITTITAS VALLEY

CITY            SKY/WX      TMP DP  RH  WIND    PRES   REMARKS
ELLENSBURG AP   CLOUDY      54  40  59  NW15    29.96F
#ELLENSBURG CWU N/A         54  42  64  NW9     29.92F
#ELLENSBURG 3NE N/A         52  42  69  N8      29.96F
#ELLENSBURG     N/A         54  45  71  W5      N/A
#ELLENSBURG 1E  N/A         53  39  59  NW2     N/A
#KITTITAS 4N    N/A         53  39  59  W8      30.12F
#KITTITAS 3S    N/A         53  42  66  NW8     29.94F
#RYEGRASS DOT   N/A         52  37  56  W14     N/A
#THORP 6N       N/A         47  41  79  NW12    30.01S WCI 42
$$

WAZ027-170310-
YAKIMA VALLEY

CITY            SKY/WX      TMP DP  RH  WIND    PRES   REMARKS
YAKIMA AIRPORT  CLOUDY      62  37  39  W7      29.94F
YAKIMA-VAGABOND MOCLDY      59  36  42  SE6     29.95F
#COWICHE 1N     N/A         56  37  49  W6      30.10F
#DONALD 2NE     N/A         60  35  39  S3      30.27S
#GRANDVIEW      N/A         62  35  36  W3      29.95S
#MABTON         N/A         62  40  44  NW6     29.93F
#MOXEE 2E       N/A         59  30  33  SW5     29.87F
#NACHES 2SW     N/A         58  40  51  W2      29.97S
#TERRACE HTS    N/A         59  40  49  CALM    29.91F
#TOPPENISH      N/A         62  39  43  W3      29.86S
#WAPATO 4NE     N/A         60  35  39  S3      30.27S
#WEST VALLEY    N/A         60  37  42  CALM    29.96S
#W YAKIMA       N/A         60  39  46  CALM    29.94S
#WHITE SWAN 5E  N/A         59  40  49  SW15G25 29.94S
#WILEY CITY 3W  N/A         58  32  37  CALM    29.95S
$$

WAZ028-170310-
LOWER COLUMBIA BASIN...WASHINGTON

CITY            SKY/WX      TMP DP  RH  WIND    PRES   REMARKS
PASCO           MOCLDY      65  35  33  SW13    29.95F
PROSSER AWOS    N/A         63  37  38  W8      29.97
RICHLAND AWOS   PTCLDY      64  34  33  SW10    29.94F
#BASIN CITY 5SW N/A         64  40  41  S1      29.94S
#BENTON CITY    N/A         62  37  39  S9      29.84F
#CONNELL 5N     N/A         61  36  39  SW3     29.92
#CONNELL 5NW    N/A         60  41  49  SW2     29.91F
#ELTOPIA        N/A         64  41  43  SW3     29.90F
#ELTOPIA 6NW    N/A         63  40  43  S5      28.91F
#KENNEWICK 3S   N/A         62  39  43  NW3     29.95F
#PASCO-BROADMOORN/A         66  36  33  S2      29.83F
#PATERSON       N/A         62  39  43  W10     29.93F
#PROSSER DOT    N/A         65  36  34  NW2     N/A
#PROSSER        N/A         63  33  32  CALM    29.94S
#SAGEMOOR 2W    N/A         63  41  44  S8      29.79F
#TOUCHET 2S     N/A         60  42  51  CALM    29.94F
#WEST PASCO     N/A         65  39  38  W5      29.93S
$$

WAZ029-170310-
FOOTHILLS OF THE BLUES...WASHINGTON

CITY            SKY/WX      TMP DP  RH  WIND    PRES   REMARKS
WALLA WALLA AP  PTCLDY      60  39  46  W5      29.98F
#COLLEGE PLACE  N/A         66  36  33  W6      29.97F
#DELANEY DOT    N/A         62  33  34  S6      N/A
#LOWDEN 2SE     N/A         62  44  52  W2      29.93S
#PLEASANT VIEW 1N/A         57  36  45  SW3     30.01F
#PRESCOTT       N/A         61  39  44  CALM    29.96S
#SUDBURY        N/A         63  N/A N/A W3      N/A
#WHITMAN COLLEGEN/A         62  37  39  SW3     30.01F
#WAITSBURG 8N   N/A         55  26  32  S6      29.82R
#WALLA WALLA 5E N/A         61  39  44  S14     N/A
#WALLA WALLA U  N/A         64  40  41  CALM    29.96S
#WHITMAN MISSIONN/A         62  42  48  W2      29.97F
$$

WAZ030-170310-
BLUE MOUNTAINS...WASHINGTON

CITY            SKY/WX      TMP DP  RH  WIND    PRES   REMARKS
$$

ORZ009-041-WAZ024-170310-
COLUMBIA RIVER GORGE

CITY            SKY/WX      TMP DP  RH  WIND    PRES   REMARKS
HOOD RIVER AP   CLOUDY      55  43  64  NW8     30.01F
THE DALLES AP   CLOUDY      59  43  55  NW13    29.99F
#ARLINGTON AIRPON/A         57  42  57  W13     25.19
#ARLINGTON HS   N/A         61  40  46  CALM    29.88S
#CELILO DOT     N/A         60  40  47  SW3     N/A
#MARYHILL       N/A         58  40  51  CALM    N/A
#MARYHILL 2W    N/A         56  43  62  S12     N/A
#MOSIER 1S      N/A         55  36  49  W6      30.03F
#MURDOCK        N/A         59  46  62  W13     30.00F
#RUFUS DOT      N/A         59  40  49  NW14    N/A

$$

ORZ510-170310-
NORTH CENTRAL OREGON

CITY            SKY/WX      TMP DP  RH  WIND    PRES   REMARKS
#CHENOWITH 1W   N/A         50  41  71  NW23    N/A
#COW CYN RST AREN/A         53  -56  1  N7      N/A
#GRASS VALLEY   N/A         49  41  74  NW3     N/A
#GRASS VALLEY 1SN/A         51  41  68  N5      30.02F
#KENT DOT       N/A         50  36  58  N9      N/A
#MAUPIN SCHOOL  N/A         60  42  51  N3      30.01S
#SHANIKO 5WSW   N/A         50  33  52  NW10    N/A
#SHANIKO 4NW    N/A         49  37  63  NW8     29.98F
#TYGH VALLEY 2NEN/A         57  43  59  N7      29.98S
#WAPANITIA AIRPON/A         56  42  59  N2      29.99F
#WASCO DOT      N/A         56  41  57  W3      N/A
#WASCO 5NE      N/A         54  42  64  W1      29.99F
$$

ORZ511-170310-
CENTRAL OREGON

CITY            SKY/WX      TMP DP  RH  WIND    PRES   REMARKS
BEND AIRPORT    MOCLDY      55  32  41  N8      30.00R
MADRAS AIRPORT  CLOUDY      59  36  42  N8      29.99F
REDMOND AIRPORT CLOUDY      56  34  43  NW12    29.98S
#BEND 6E        N/A         54  32  43  CALM    29.92F
#BEND 1SW       N/A         53  32  45  N1      N/A
#BEND-AWBREY    N/A         54  38  55  S2      29.99S
#BEND-KIM LN    N/A         56  38  51  NW1     29.97R
#CROOKED RVR RANN/A         58  39  49  NW3     29.97S
#CULVER         N/A         58  38  47  CALM    29.94F
#LAKE BILLY CHINN/A         57  14  18  W3      30.03S
#POWELL BUTTE   N/A         56  37  49  NW6     29.64S
#PRINEVILLE AIR N/A         57  36  45  W10     29.97S
#PRINEVILLE 3N  N/A         56  39  53  SW7     29.91F


ORZ509-170310-
EAST SLOPES OF OREGON CASCADES

CITY            SKY/WX      TMP DP  RH  WIND    PRES   REMARKS
#BLUE BOX PASS  N/A         42  -8  11  NW6     N/A
#CAMP SHERMAN   N/A         55  39  55  N1      30.00R
#LA PINE DOT    N/A         53  29  39  W7      N/A
#LA PINE 4NW    N/A         53  35  50  N1      30.02S
#LAVA BUTTE DOT N/A         50  32  50  CALM    N/A
#SISTERS AIRPOR N/A         54  43  66  N7      30.01R
#SISTERS ODOT   N/A         54  N/A N/A CALM    N/A
#SISTERS 3N     N/A         54  34  47  CALM    30.04S
#SUNRIVER       N/A         54  36  50  CALM    29.87R
#SUNRIVER AP    N/A         54  35  48  CALM    29.96R
#SUTTLE LK DOT  N/A         45  38  76  W15     N/A    WCI 38
#TUMALO 3W      N/A         53  36  52  N6      29.88S
#WANOGA BUTTE D N/A         42  32  67  SW3     N/A

$$

ORZ044-170310-
LOWER COLUMBIA BASIN...OREGON

CITY            SKY/WX      TMP DP  RH  WIND    PRES   REMARKS
HERMISTON       MOCLDY      62  39  43  W10     29.96S
#BOARDMAN SCHOOLN/A         62  39  43  W2      29.95S
#BOARDMAN 3W    N/A         61  39  44  W7      29.68S
#BOARDMAN 8SW   N/A         60  42  51  W12     29.96S
#IONE SCHOOL    N/A         58  40  51  W7      29.97S
#IRRIGON 4NW    N/A         62  40  44  S10     N/A
#UMATILLA       N/A         64  39  40  W1      29.93F
$$

ORZ507-170310-
NORTHERN FOOTHILLS OF THE BLUES

CITY            SKY/WX      TMP DP  RH  WIND    PRES   REMARKS
PENDLETON AIRPT PTCLDY      58  36  44  NW6     29.96F
#ADAMS 3WNW     N/A         57  41  55  CALM    29.98F
#ATHENA         N/A         57  39  51  W1      30.00F
#HELIX SCHOOL   N/A         58  36  44  W6      29.97F
#HELIX 3N       N/A         56  38  51  W7      29.94F
#M-F FERNDALE   N/A         63  40  43  CALM    29.96F
#M-F GROVE ELEM N/A         61  35  38  CALM    29.96F
#M-FREEWATER 5SEN/A         60  40  47  CALM    29.97F
#PDT AQUATIC CTRN/A         64  36  35  W1      29.98S
#PENDLETON DNTN N/A         63  35  35  CALM    29.92S
#PDT SUNRIDGE   N/A         61  38  42  NW2     29.97F
#PILOT ROCK     N/A         58  36  44  CALM    29.99F
#TUTUILLA       N/A         58  35  42  CALM    29.90F
#UMAPINE 2E     N/A         60  42  51  CALM    29.90F
#WESTON SCHOOL  N/A         57  32  38  CALM    30.02F

$$

ORZ508-170310-
SOUTHERN FOOTHILLS OF THE BLUES

CITY            SKY/WX      TMP DP  RH  WIND    PRES   REMARKS
LEXINGTON       PTCLDY      57  39  51  NW9     30.00S
#AJAX           N/A         53  39  59  N7      30.00F
#CONDON SCHOOL  N/A         52  40  63  NW6     29.95F
#CONDON 5W      N/A         50  38  63  NW7     29.96S
#FOSSIL SCHOOL  N/A         56  38  51  NW1     29.95F
#HEPPNER 4NE    N/A         52  39  61  W7      29.98F
#LEXINGTON 2SE  N/A         58  41  53  NW8     29.94S
#MIKKALO        N/A         56  39  53  NW12    29.99S
#OLEX 4N        N/A         56  42  59  W2      29.98S
#RUGGS 5NE      N/A         52  38  59  W7      30.20F
#RUGGS 2SW      N/A         53  39  59  N6      30.03F

$$

ORZ502-503-170310-
BLUE MOUNTAINS

CITY            SKY/WX      TMP DP  RH  WIND    PRES   REMARKS
MEACHAM         PTCLDY      50  32  50  CALM    29.99F
#BATTLE MTN DOT N/A         46  36  68  N2      N/A
#HARDMAN 10S    N/A         50  33  52  CALM    30.04F
#HEPPNER 15SE   N/A         47  36  65  CALM    29.89F
#LADD CYN SMT   N/A         51  29  42  N2      N/A
#LADD CREEK ODOTN/A         49  36  61  CALM    N/A
#LONG CREEK HS  N/A         53  35  50  N3      29.93S
#N POWDER DOT   N/A         51  37  59  NE7     N/A
#TOLLGATE       N/A         41  32  70  CALM    29.96S
#TOLLGATE 9W    N/A         50  33  52  W3      N/A
#TROY SCHOOL    N/A         59  39  47  CALM    29.83S
#UKIAH          N/A         52  35  52  CALM    30.05F
#WESTON 4E      N/A         53  35  50  S1      29.96F
$$

ORZ505-170310-
JOHN DAY BASIN

CITY            SKY/WX      TMP DP  RH  WIND    PRES   REMARKS
JOHN DAY        PTCLDY      57  30  35  N3      29.98S
#JOHN DAY KJDY  N/A         59  22  24  N2      29.93S
#MONUMENT HS    N/A         62  29  28  NE1     29.91F
#MT. VERNON 5SE N/A         54  30  40  CALM    29.94R
#SPRAY SCHOOL   N/A         63  N/A N/A CALM    N/A
$$

ORZ506-170310-
OCHOCO AND JOHN DAY HIGHLANDS

CITY            SKY/WX      TMP DP  RH  WIND    PRES   REMARKS
#ANTONE         N/A         32  N/A N/A CALM    N/A
#BUCK CREEK DOT N/A         57  35  43  N3      N/A
#HORSE RIDGE DO N/A         53  33  46  N7      N/A
#KEYES SMT DOT  N/A         50  31  48  NW6     N/A
#PAULINA SCHOOL N/A         62  29  28  CALM    29.95S
#PINE MTN OBS   N/A         43  32  65  NW3     N/A
#PRAIRIE CITY   N/A         54  28  36  CALM    29.95R
#SENECA 9NW     N/A         50  29  44  CALM    29.97S
$$

ORZ049-170310-
GRANDE RONDE VALLEY

CITY            SKY/WX      TMP DP  RH  WIND    PRES   REMARKS
LA GRANDE       MOCLDY      55  30  38  N3      29.98S
#COVE           N/A         55  36  49  CALM    29.91F
#COVE SCHOOL    N/A         54  35  48  CALM    29.96F
#COVE 6NW       N/A         55  33  43  N2      30.05F
#ELGIN 3N       N/A         54  33  45  CALM    29.71F
#ELGIN 1E       N/A         56  35  45  CALM    N/A
#IMBLER SCHOOL  N/A         53  34  48  CALM    29.95F
#ISLAND CITY 4N N/A         55  38  53  CALM    29.95F
#LADD CYN DOT   N/A         52  32  46  SW2     N/A
#LA GRANDE ELEM N/A         53  37  54  CALM    29.96F
#UNION 1S       N/A         57  35  43  CALM    29.92F
$$

ORZ050-170310-
WALLOWA COUNTY

CITY            SKY/WX      TMP DP  RH  WIND    PRES   REMARKS
#ENTERPRISE HS  N/A         51  34  52  VRB1    29.99S
#IMNAHA SCHOOL  N/A         58  30  34  CALM    29.88S
#JOSEPH 3N      N/A         49  34  56  CALM    30.02S
#LOSTINE        N/A         50  34  54  NW1     29.82F
#MT HOWARD 8000 N/A         30  24  78  CALM    30.00F
#PROMISE 1S     N/A         48  33  56  CALM    30.10F
#SHEEP RDG 7000 N/A         34  25  69  CALM    30.12F
#WALLOWA SCHOOL N/A         53  33  46  N1      30.95F



$$



USA.gov is the U.S. government's official web portal to all federal, state and local government web resources and services.